User: anonymous   Login
Location: Heilwood
(40.6210°N, 78.9150°W)
Time: 15:40:34
(UTC-04:00)
Language:

Iridium 4 Rocket - Orbit

View from above orbital plane
View from above orbital plane
View from above satellite
View from above satellite

Ground track
Ground track

The orbit data is extracted from the following two-line orbital elements,

1 24797U 97020F   18108.82022826 +.00000083 +00000-0 +12223-4 0  9990
2 24797 086.8973 241.3914 0225848 018.8795 131.6704 14.44048729102012
Epoch (UTC): 18 April 2018 19:41:07
Eccentricity: 0.0225848
inclination: 86.8973°
perigee height: 584 km
apogee height: 906 km
right ascension of ascending node: 241.3914°
argument of perigee: 18.8795°
revolutions per day: 14.44048729
mean anomaly at epoch: 131.6704°
orbit number at epoch: 10201

The dashed part of the orbit path shows where the satellite is in the earth's shadow,  

DLR